| time (UTC) | temp F | wind direction | speed knots | gust knots | rain 1hr in | rain 24hr in | rain mn in | humidity % | barometer mb |
| 20260507002002 | 49 | 4 | 5.2 | 136.4 | 0.00 | 0.00 | 0.00 | 9 | 1002.1 |
| 20260507001002 | 50 | 354 | 6.1 | 85.2 | 0.00 | 0.00 | 0.00 | 9 | 1002.0 |
| 20260507000002 | 50 | 354 | 6.1 | 53.0 | 0.00 | 0.00 | 0.00 | 9 | 1002.2 |
| 20260506235003 | 50 | 354 | 6.1 | 53.0 | 0.00 | 0.00 | 0.00 | 9 | 1002.1 |
| 20260506234002 | 50 | 354 | 6.1 | 33.0 | 0.00 | 0.00 | 0.00 | 9 | 1002.0 |
| 20260506233002 | 50 | 354 | 6.1 | 20.9 | 0.00 | 0.00 | 0.00 | 9 | 1001.8 |
| 20260506232002 | 50 | 354 | 6.1 | 126.0 | 0.00 | 0.00 | 0.00 | 9 | 1001.7 |
| 20260506231002 | 52 | 351 | 5.2 | 126.0 | 0.00 | 0.00 | 0.00 | 9 | 1001.8 |
| 20260506230002 | 52 | 351 | 5.2 | 126.0 | 0.00 | 0.00 | 0.00 | 9 | 1001.8 |
| 20260506225002 | 52 | 351 | 5.2 | 126.0 | 0.00 | 0.00 | 0.00 | 9 | 1001.9 |
| 20260506224002 | 52 | 351 | 5.2 | 126.0 | 0.00 | 0.00 | 0.00 | 9 | 1001.8 |
| 20260506223002 | 52 | 351 | 5.2 | 126.0 | 0.00 | 0.00 | 0.00 | 9 | 1001.7 |
| 20260506222002 | 52 | 351 | 5.2 | 126.0 | 0.00 | 0.00 | 0.00 | 9 | 1001.7 |
| 20260506221002 | 52 | 351 | 5.2 | 787.3 | 0.00 | 0.00 | 0.00 | 9 | 1001.7 |
| 20260506220002 | 54 | 352 | 7.0 | 489.2 | 0.00 | 0.00 | 0.00 | 8 | 1001.6 |
| 20260506215001 | 54 | 352 | 7.0 | 304.1 | 0.00 | 0.00 | 0.00 | 8 | 1001.6 |
| 20260506214003 | 54 | 352 | 7.0 | 304.1 | 0.00 | 0.00 | 0.00 | 8 | 1001.6 |
| 20260506213002 | 54 | 352 | 7.0 | 189.4 | 0.00 | 0.00 | 0.00 | 8 | 1001.7 |
| 20260506212003 | 54 | 352 | 7.0 | 118.2 | 0.00 | 0.00 | 0.00 | 8 | 1001.6 |
| 20260506211003 | 54 | 352 | 7.0 | 118.2 | 0.00 | 0.00 | 0.00 | 8 | 1001.7 |
| 20260506210002 | 55 | 338 | 5.2 | 73.9 | 0.00 | 0.00 | 0.00 | 8 | 1001.8 |
| 20260506205002 | 55 | 338 | 5.2 | 73.9 | 0.00 | 0.00 | 0.00 | 8 | 1001.8 |
| 20260506204003 | 55 | 338 | 5.2 | 46.1 | 0.00 | 0.00 | 0.00 | 8 | 1001.8 |
| 20260506203003 | 55 | 338 | 5.2 | 46.1 | 0.00 | 0.00 | 0.00 | 8 | 1001.9 |
| 20260506202003 | 55 | 338 | 5.2 | 28.7 | 0.00 | 0.00 | 0.00 | 8 | 1001.9 |
| 20260506201002 | 55 | 338 | 5.2 | 18.2 | 0.00 | 0.00 | 0.00 | 8 | 1001.9 |
| 20260506200002 | 59 | 340 | 5.2 | 18.2 | 0.00 | 0.00 | 0.00 | 8 | 1002.2 |
| 20260506195002 | 59 | 340 | 5.2 | 18.2 | 0.00 | 0.00 | 0.00 | 8 | 1002.2 |
| 20260506194002 | 59 | 340 | 5.2 | 56.5 | 0.00 | 0.00 | 0.00 | 8 | 1001.3 |
| 20260506193002 | 59 | 340 | 5.2 | 56.5 | 0.00 | 0.00 | 0.00 | 8 | 1001.2 |
| 20260506192002 | 59 | 340 | 5.2 | 35.6 | 0.00 | 0.00 | 0.00 | 8 | 1001.2 |
| 20260506191002 | 59 | 340 | 5.2 | 22.6 | 0.00 | 0.00 | 0.00 | 8 | 1001.2 |
| 20260506190002 | 61 | 323 | 5.2 | 22.6 | 0.00 | 0.00 | 0.00 | 8 | 1001.0 |
| 20260506185002 | 61 | 323 | 5.2 | 22.6 | 0.00 | 0.00 | 0.00 | 8 | 1000.9 |
| 20260506184002 | 61 | 323 | 5.2 | 22.6 | 0.00 | 0.00 | 0.00 | 8 | 1000.8 |
| 20260506183004 | 61 | 323 | 5.2 | 42.6 | 0.00 | 0.00 | 0.00 | 8 | 1000.5 |
| 20260506182002 | 61 | 323 | 5.2 | 42.6 | 0.00 | 0.00 | 0.00 | 8 | 1000.2 |
| 20260506181002 | 61 | 323 | 5.2 | 26.9 | 0.00 | 0.00 | 0.00 | 8 | 1000.2 |
| 20260506180002 | 66 | 289 | 7.0 | 94.7 | 0.00 | 0.00 | 0.00 | 6 | 1000.0 |
| 20260506175002 | 66 | 289 | 7.0 | 94.7 | 0.00 | 0.00 | 0.00 | 6 | 999.9 |
| 20260506174002 | 66 | 289 | 7.0 | 94.7 | 0.00 | 0.00 | 0.00 | 6 | 999.9 |
| 20260506173002 | 66 | 289 | 7.0 | 94.7 | 0.00 | 0.00 | 0.00 | 6 | 1000.1 |
| 20260506172002 | 66 | 289 | 7.0 | 94.7 | 0.00 | 0.00 | 0.00 | 6 | 999.9 |
| 20260506171002 | 66 | 289 | 7.0 | 94.7 | 0.00 | 0.00 | 0.00 | 6 | 1000.0 |
| 20260506170003 | 66 | 289 | 7.0 | 94.7 | 0.00 | 0.00 | 0.00 | 6 | 999.8 |
| 20260506165002 | 67 | 267 | 8.7 | 590.9 | 0.00 | 0.00 | 0.00 | 6 | 999.5 |
| 20260506164003 | 67 | 267 | 8.7 | 367.6 | 0.00 | 0.00 | 0.00 | 6 | 999.7 |
| 20260506163002 | 67 | 267 | 8.7 | 367.6 | 0.00 | 0.00 | 0.00 | 6 | 999.6 |
| 20260506162002 | 67 | 267 | 8.7 | 228.5 | 0.00 | 0.00 | 0.00 | 6 | 999.5 |
| 20260506161002 | 67 | 267 | 8.7 | 142.5 | 0.00 | 0.00 | 0.00 | 6 | 999.5 |
| 20260506160002 | 67 | 267 | 8.7 | 142.5 | 0.00 | 0.00 | 0.00 | 6 | 999.6 |
| 20260506155002 | 70 | 242 | 10.4 | 88.6 | 0.00 | 0.00 | 0.00 | 5 | 999.7 |
| 20260506154002 | 70 | 242 | 10.4 | 55.6 | 0.00 | 0.00 | 0.00 | 5 | 999.8 |
| 20260506153002 | 70 | 242 | 10.4 | 34.8 | 0.00 | 0.00 | 0.00 | 5 | 999.7 |
| 20260506152003 | 70 | 242 | 10.4 | 21.7 | 0.00 | 0.00 | 0.00 | 5 | 999.5 |
| 20260506151003 | 70 | 242 | 10.4 | 121.7 | 0.00 | 0.00 | 0.00 | 5 | 999.6 |
| 20260506150002 | 70 | 242 | 10.4 | 121.7 | 0.00 | 0.00 | 0.00 | 5 | 999.4 |
| 20260506145002 | 69 | 238 | 10.4 | 121.7 | 0.00 | 0.00 | 0.00 | 5 | 999.4 |
| 20260506144002 | 69 | 238 | 10.4 | 121.7 | 0.00 | 0.00 | 0.00 | 5 | 999.4 |
| 20260506143003 | 69 | 238 | 10.4 | 121.7 | 0.00 | 0.00 | 0.00 | 5 | 999.3 |
| 20260506142002 | 69 | 238 | 10.4 | 121.7 | 0.00 | 0.00 | 0.00 | 5 | 999.4 |
| 20260506141002 | 69 | 238 | 10.4 | 121.7 | 0.00 | 0.00 | 0.00 | 5 | 999.3 |
| 20260506140002 | 69 | 238 | 10.4 | 121.7 | 0.00 | 0.00 | 0.00 | 5 | 999.4 |
| 20260506135002 | 69 | 237 | 11.3 | 757.7 | 0.00 | 0.00 | 0.00 | 5 | 999.5 |
| 20260506134001 | 69 | 237 | 11.3 | 471.0 | 0.00 | 0.00 | 0.00 | 5 | 999.4 |
| 20260506133002 | 69 | 237 | 11.3 | 471.0 | 0.00 | 0.00 | 0.00 | 5 | 999.3 |
| 20260506132002 | 69 | 237 | 11.3 | 292.8 | 0.00 | 0.00 | 0.00 | 5 | 999.2 |
| 20260506131002 | 69 | 237 | 11.3 | 182.5 | 0.00 | 0.00 | 0.00 | 5 | 999.2 |
| 20260506130003 | 69 | 237 | 11.3 | 113.8 | 0.00 | 0.00 | 0.00 | 5 | 999.4 |
| 20260506125002 | 68 | 239 | 11.3 | 71.3 | 0.00 | 0.00 | 0.00 | 5 | 999.3 |
| 20260506124002 | 68 | 239 | 11.3 | 71.3 | 0.00 | 0.00 | 0.00 | 5 | 999.3 |
| 20260506123002 | 68 | 239 | 11.3 | 44.3 | 0.00 | 0.00 | 0.00 | 5 | 999.5 |
| 20260506122002 | 68 | 239 | 11.3 | 27.8 | 0.00 | 0.00 | 0.00 | 5 | 999.5 |
| 20260506121003 | 68 | 239 | 11.3 | 126.0 | 0.00 | 0.00 | 0.00 | 5 | 999.5 |
| 20260506120002 | 68 | 239 | 11.3 | 126.0 | 0.00 | 0.00 | 0.00 | 5 | 999.5 |
| 20260506115002 | 68 | 239 | 11.3 | 126.0 | 0.00 | 0.00 | 0.00 | 5 | 999.5 |
| 20260506114003 | 66 | 241 | 10.4 | 126.0 | 0.00 | 0.00 | 0.00 | 6 | 999.5 |
| 20260506113002 | 66 | 241 | 10.4 | 126.0 | 0.00 | 0.00 | 0.00 | 6 | 999.5 |
| 20260506112003 | 66 | 241 | 10.4 | 126.0 | 0.00 | 0.00 | 0.00 | 6 | 999.5 |
| 20260506111002 | 66 | 241 | 10.4 | 126.0 | 0.00 | 0.00 | 0.00 | 6 | 999.5 |
| 20260506110004 | 66 | 241 | 10.4 | 787.3 | 0.00 | 0.00 | 0.00 | 6 | 999.5 |
| 20260506105002 | 66 | 241 | 10.4 | 787.3 | 0.00 | 0.00 | 0.00 | 6 | 999.5 |
| 20260506104002 | 64 | 240 | 10.4 | 489.2 | 0.00 | 0.00 | 0.00 | 6 | 999.5 |
| 20260506103002 | 64 | 240 | 10.4 | 489.2 | 0.00 | 0.00 | 0.00 | 6 | 999.4 |
| 20260506102002 | 64 | 240 | 10.4 | 304.1 | 0.00 | 0.00 | 0.00 | 6 | 999.5 |
| 20260506101003 | 64 | 240 | 10.4 | 304.1 | 0.00 | 0.00 | 0.00 | 6 | 999.4 |
| 20260506100002 | 64 | 240 | 10.4 | 189.4 | 0.00 | 0.00 | 0.00 | 6 | 999.3 |
| 20260506095002 | 64 | 240 | 10.4 | 189.4 | 0.00 | 0.00 | 0.00 | 6 | 999.4 |
| 20260506094002 | 60 | 241 | 7.8 | 118.2 | 0.00 | 0.00 | 0.00 | 7 | 999.4 |
| 20260506093002 | 60 | 241 | 7.8 | 118.2 | 0.00 | 0.00 | 0.00 | 7 | 999.4 |
| 20260506092002 | 60 | 241 | 7.8 | 73.9 | 0.00 | 0.00 | 0.00 | 7 | 999.3 |
| 20260506091002 | 60 | 241 | 7.8 | 46.1 | 0.00 | 0.00 | 0.00 | 7 | 999.5 |
| 20260506090002 | 60 | 241 | 7.8 | 46.1 | 0.00 | 0.00 | 0.00 | 7 | 999.4 |
| 20260506085003 | 60 | 241 | 7.8 | 28.7 | 0.00 | 0.00 | 0.00 | 7 | 999.4 |
| 20260506084002 | 55 | 226 | 5.2 | 28.7 | 0.00 | 0.00 | 0.00 | 8 | 999.5 |
| 20260506083002 | 55 | 226 | 5.2 | 90.4 | 0.00 | 0.00 | 0.00 | 8 | 999.5 |
| 20260506082002 | 55 | 226 | 5.2 | 56.5 | 0.00 | 0.00 | 0.00 | 8 | 999.3 |
| 20260506081002 | 55 | 226 | 5.2 | 35.6 | 0.00 | 0.00 | 0.00 | 8 | 999.3 |
| 20260506073002 | 52 | 120 | 1.7 | 94.7 | 0.00 | 0.00 | 0.00 | 8 | 999.4 |
| 20260506072002 | 52 | 120 | 1.7 | 94.7 | 0.00 | 0.00 | 0.00 | 8 | 999.4 |
| 20260506071002 | 52 | 120 | 1.7 | 94.7 | 0.00 | 0.00 | 0.00 | 8 | 999.3 |
| 20260506062003 | 51 | 49 | 3.5 | 590.9 | 0.00 | 0.00 | 0.00 | 8 | 999.0 |
| 20260506061002 | 51 | 49 | 3.5 | 590.9 | 0.00 | 0.00 | 0.00 | 8 | 998.9 |
| 20260506051002 | 50 | 53 | 7.8 | 88.6 | 0.00 | 0.00 | 0.00 | 9 | 999.1 |
| 20260506045002 | 50 | 53 | 7.8 | 55.6 | 0.00 | 0.00 | 0.00 | 9 | 999.0 |
| 20260506044002 | 50 | 53 | 7.8 | 34.8 | 0.00 | 0.00 | 0.00 | 9 | 998.7 |
| 20260506043002 | 50 | 35 | 7.0 | 21.7 | 0.00 | 0.00 | 0.00 | 8 | 998.5 |
| 20260506042002 | 50 | 35 | 7.0 | 103.4 | 0.00 | 0.00 | 0.00 | 8 | 998.1 |
| 20260506041002 | 50 | 35 | 7.0 | 103.4 | 0.00 | 0.00 | 0.00 | 8 | 998.2 |
| 20260506040003 | 50 | 35 | 7.0 | 103.4 | 0.00 | 0.00 | 0.00 | 8 | 998.6 |
| 20260506035001 | 50 | 35 | 7.0 | 103.4 | 0.00 | 0.00 | 0.00 | 8 | 998.6 |
| 20260506034003 | 50 | 35 | 7.0 | 103.4 | 0.00 | 0.00 | 0.00 | 8 | 998.7 |
| 20260506033002 | 51 | 39 | 7.0 | 103.4 | 0.00 | 0.00 | 0.00 | 8 | 998.9 |
| 20260506032002 | 51 | 39 | 7.0 | 103.4 | 0.00 | 0.00 | 0.00 | 8 | 998.8 |
| 20260506031002 | 51 | 39 | 7.0 | 643.0 | 0.00 | 0.00 | 0.00 | 8 | 999.0 |
| 20260506030002 | 51 | 39 | 7.0 | 399.7 | 0.00 | 0.00 | 0.00 | 8 | 999.1 |
| 20260506025002 | 51 | 39 | 7.0 | 248.5 | 0.00 | 0.00 | 0.00 | 8 | 999.2 |
| 20260506024003 | 51 | 39 | 7.0 | 154.7 | 0.00 | 0.00 | 0.00 | 8 | 999.3 |
| 20260506023002 | 52 | 47 | 7.8 | 96.5 | 0.00 | 0.00 | 0.00 | 8 | 999.3 |
| 20260506022003 | 52 | 47 | 7.8 | 60.0 | 0.00 | 0.00 | 0.00 | 8 | 999.4 |
| 20260506021002 | 52 | 47 | 7.8 | 37.4 | 0.00 | 0.00 | 0.00 | 8 | 999.4 |
| 20260506020002 | 52 | 47 | 7.8 | 23.5 | 0.00 | 0.00 | 0.00 | 8 | 999.4 |
| 20260506015002 | 52 | 47 | 7.8 | 121.7 | 0.00 | 0.00 | 0.00 | 8 | 999.5 |
| 20260506014002 | 52 | 47 | 7.8 | 121.7 | 0.00 | 0.00 | 0.00 | 8 | 999.7 |
| 20260506013002 | 52 | 47 | 7.8 | 121.7 | 0.00 | 0.00 | 0.00 | 8 | 999.6 |
| 20260506012002 | 55 | 42 | 7.8 | 121.7 | 0.00 | 0.00 | 0.00 | 7 | 999.5 |
| 20260506011002 | 55 | 42 | 7.8 | 121.7 | 0.00 | 0.00 | 0.00 | 7 | 999.6 |
| 20260506010002 | 55 | 42 | 7.8 | 121.7 | 0.00 | 0.00 | 0.00 | 7 | 999.4 |
| 20260506005002 | 55 | 42 | 7.8 | 121.7 | 0.00 | 0.00 | 0.00 | 7 | 999.4 |
| 20260506004002 | 55 | 42 | 7.8 | 757.7 | 0.00 | 0.00 | 0.00 | 7 | 999.3 |
| 20260506003002 | 55 | 42 | 7.8 | 757.7 | 0.00 | 0.00 | 0.00 | 7 | 999.3 |